Location: Newark
(48.1500°N, 2.9667°W)
Time: 04:57:47
(UTC+00:00)

Altair - Pass Details

Date: 01 February 2020
Orbit: 1502 x 1682 km, 47.2° (Epoch: 25 February)

Event Time Altitude Azimuth Distance (km) Brightness Sun altitude
Rises 06:52:32 0° 225° (SW) 4,822 9.8 -8.4°
Reaches altitude 10° 06:55:42 10° 221° (SW) 3,860 9.4 -7.8°
Maximum altitude 07:05:13 54° 148° (SSE) 1,963 8.5 -6.3°
Drops below altitude 10° 07:14:57 10° 75° (ENE) 3,949 10.6 -4.8°
Sets 07:18:13 0° 71° (ENE) 4,939 11.0 -4.3°
